{"data":{"norad_id":52377,"epoch":"2026-09-20T03:41:29.685120Z","epoch_age_seconds":89539,"freshness":"FRESH","line1":"1 52377U 22045AY  26263.15381580 -.00000659  00000+0 -83679-5 0  9996","line2":"2 52377  53.1598  26.9910 0000925  77.5481 282.5625 15.34393099245391","mean_motion":15.34393099,"eccentricity":9.25e-5,"inclination_deg":53.1598,"raan_deg":26.991,"arg_perigee_deg":77.5481,"mean_anomaly_deg":282.5625,"bstar":-8.3679e-6,"rev_number":24539,"period_min":93.848180165727,"perigee_km":462.09097189079,"apogee_km":463.35653112981,"semimajor_km":6840.8607515103,"source":"CELESTRAK","updated_at":"2026-09-20T09:00:40.030089Z"}}